Home > Weather > Moncton > Past weeks

Flag for Canada Past Weather in Moncton, New Brunswick, Canada — Yesterday and Last 2 Weeks

Now
66 °F

Partly sunny.


Feels Like: 66 °F
Forecast: 59 / 78 °F
Wind: 18 mph from Southwest

Location: Moncton

Current Time: Jun 28, 2016 at 8:32:13 AM

Latest Report: Jun 28, 2016 at 8:00 AM


Visibility: 15 mi

Pressure: 29.99 "Hg

Humidity: 83%

Dew Point: 61 °F

Location of MonctonLocation

Past Weather in Moncton — Graph

°F

Moncton Temperature Yesterday

Maximum temperature yesterday: 86 °F (at 2:00 PM)
Minimum temperature yesterday: 54 °F (at 6:00 AM)
Average temperature yesterday: 70 °F

High & Low Weather Summary for the Past Weeks

 TemperatureHumidityPressure
High86 °F (Jun 27, 2:00 PM)100% (Jun 13, 8:00 AM)30.23 "Hg (Jun 13, 8:00 AM)
Low41 °F (Jun 18, 2:00 AM)28% (Jun 18, 3:00 PM)29.35 "Hg (Jun 13, 3:00 PM)
Average61 °F68%29.87 "Hg
* Reported Jun 13 7:00 AM — Jun 28 7:00 AM, Moncton, Weather by CustomWeather, © 2016

Note: Actual official high and low records may vary slightly from our data, if they occured in-between our weather recording intervals... More about our weather records

Advertising

Moncton Weather History for the Previous 24 Hours

Scroll right to see more
 ConditionsComfort  
Time TempWeatherWind HumidityBarometerVisibility
7:00 AM
Tue, Jun 28
64 °FPartly sunny.15 mph83%29.99 "Hg15 mi
6:00 AM64 °FPassing clouds.16 mph83%29.99 "Hg15 mi
5:00 AM63 °FPassing clouds.17 mph83%29.98 "Hg15 mi
4:00 AM61 °FPassing clouds.15 mph77%29.98 "Hg15 mi
3:00 AM59 °FPassing clouds.12 mph77%29.99 "Hg15 mi
2:00 AM61 °FPassing clouds.12 mph63%30.00 "Hg15 mi
1:00 AM61 °FPassing clouds.10 mph52%30.00 "Hg15 mi
12:00 AM64 °FPassing clouds.14 mph40%30.00 "Hg15 mi
11:00 PM
Mon, Jun 27
64 °FPassing clouds.14 mph43%30.00 "Hg15 mi
10:00 PM66 °FScattered clouds.21 mph46%30.00 "Hg15 mi
9:00 PM70 °FScattered clouds.21 mph43%30.00 "Hg15 mi
8:00 PM73 °FPartly sunny.16 mph44%29.99 "Hg15 mi
7:00 PM77 °FPartly sunny.24 mph47%29.96 "Hg15 mi
6:00 PM81 °FScattered clouds.23 mph45%29.96 "Hg15 mi
5:00 PM82 °FScattered clouds.16 mph45%29.95 "Hg15 mi
4:00 PM84 °FScattered clouds.17 mph43%29.95 "Hg15 mi
3:00 PM84 °FScattered clouds.18 mph40%29.95 "Hg15 mi
2:00 PM86 °FScattered clouds.17 mph31%29.96 "Hg15 mi
1:00 PM84 °FScattered clouds.18 mph35%29.98 "Hg15 mi
12:00 PM82 °FPassing clouds.10 mph42%29.98 "Hg15 mi
11:00 AM79 °FPassing clouds.10 mph48%30.01 "Hg15 mi
10:00 AM73 °FPassing clouds.7 mph61%30.02 "Hg15 mi
9:00 AM68 °FPassing clouds.8 mph64%30.03 "Hg15 mi
8:00 AM63 °FPassing clouds.6 mph73%30.05 "Hg15 mi
Weather by CustomWeather, © 2016

See weather overviewHow to use our weather pages